Regional Weather Roundup
Issued by NWS

Home | Current Version | Previous Version | Text Only | Print | Product List | Glossary On
Versions: 1 2 3 4 5 6 7 8 9 10 11 12 13 14 15 16 17 18 19 20 21 22 23 24 25 26 27 28 29 30 31 32 33 34 35 36 37 38 39 40 41 42 43 44 45 46 47 48 49 50
000
ASUS46 KLOX 230011
RWRCA

SOUTHERN CALIFORNIA WEATHER ROUNDUP
NATIONAL WEATHER SERVICE OXNARD CALIFORNIA
500 PM PDT FRI MAY 22 2015

NOTE: "FAIR" INDICATES FEW OR NO CLOUDS BELOW 12,000 FEET WITH NO
SIGNIFICANT WEATHER AND/OR OBSTRUCTIONS TO VISIBILITY.

  -  STATIONS PRECEEDED BY AN ASTERISK (*) ARE NOT NWS OR FAA
     STATIONS AND ARE NOT SUBJECT TO NWS AND FAA QUALITY CONTROL.

CAZ041-042-087-230100-
LA AND ORANGE COUNTY COASTAL AREAS


CITY           SKY/WX    TMP DP  RH WIND       PRES   REMARKS
L.A. DOWNTOWN  CLOUDY    66  50  56 VRB5      30.01R
L.A. AIRPORT   PTSUNNY   63  54  72 SW15      30.02S
LONG BEACH     CLOUDY    65  51  60 S8        30.01S

CITY           SKY/WX    TMP DP  RH WIND       PRES   REMARKS
AVALON           N/A     63 N/A N/A MISG        N/A
FULLERTON      CLOUDY    66  50  56 SW9       30.00S
HAWTHORNE      MOSUNNY   66  51  58 W13       30.02S
*LOS ALAMITOS  PTSUNNY   63  53  71 SW13      30.02R
*REDONDO BEACH   N/A     68  56  64 SW6       30.02S
SANTA ANA      PTSUNNY   65  49  56 W9        30.02S
STA MONICA APT FAIR      66  51  58 SW10      30.02S
*STA MON PIER    N/A     62  56  81 SW6       30.02R
TORRANCE       PTSUNNY   66  55  68 W12       30.02S
*UCLA            N/A     61  50  67 SW12      29.99R

$$

CAZ547-548-048-230100-
LA COUNTY VALLEYS AND INLAND EMPIRE


CITY           SKY/WX    TMP DP  RH WIND       PRES   REMARKS
BURBANK        CLOUDY    63  47  55 S8        30.00R
VAN NUYS       CLOUDY    63  46  54 S8        30.00R

CITY           SKY/WX    TMP DP  RH WIND       PRES   REMARKS
CORONA AIRPORT CLOUDY    63  48  57 VRB7      30.02S
*CHATSWORTH      N/A     64  49  57 CALM      30.00S
CHINO          CLOUDY    64  49  57 W9        30.03S
MARCH AFB      CLOUDY    58  48  69 NW5       30.03R
*NORTHRIDGE      N/A     63  45  51 SE3         N/A
ONTARIO        CLOUDY    60  48  64 W8        30.02R
*PASADENA        N/A     63  52  67 NE2         N/A
POMONA         CLOUDY    57  48  72 SW6       30.05R
RIVERSIDE      CLOUDY    62  48  60 W7        30.02S
SAN BERNARDINO CLOUDY    57  48  72 CALM      30.03R
*WHITEMAN AP   CLOUDY    63  46  55 SE6       30.03S
*WOODLAND HILL   N/A     63  48  59 SE6         N/A

$$

CAZ054-055-230100-
LA AND SAN BERNARDINO COUNTY MOUNTAINS


CITY           SKY/WX    TMP DP  RH WIND       PRES   REMARKS
*BIG BEAR AIRP CLOUDY    41  34  75 CALM      30.03S
SANDBERG       CLOUDY    53  43  68 S8        30.03R

$$

CAZ028-029-059-060-099-230100-
ANTELOPE VALLEY AND SURROUNDING AREAS


CITY           SKY/WX    TMP DP  RH WIND       PRES   REMARKS
LANCASTER      MOSUNNY   63  43  48 SW22G35   29.96R
PALMDALE       SUNNY     62  44  51 SW25G33   29.97R

CITY           SKY/WX    TMP DP  RH WIND       PRES   REMARKS
29 PALMS       PTSUNNY   73  35  25 NW18G28   29.93R
BARSTOW/DAGGET MOSUNNY   71  40  32 SW28G39   29.86S
BISHOP         PTSUNNY   68  38  33 SW8       29.87S
CHINA LAKE     MOSUNNY   73  38  27 VRB5      29.84F
EDWARDS AFB    PTSUNNY   66  41  40 W29G36    29.89S
MOJAVE         FAIR      63  41  45 W28G36    29.93S
NEEDLES        CLOUDY    76  36  23 W10       29.84S
VICTORVILLE    PTSUNNY   64  39  39 W16G25    29.95R

$$

CAZ039-040-230100-
VENTURA AND SANTA BARBARA COUNTY COAST


CITY           SKY/WX    TMP DP  RH WIND       PRES   REMARKS
CAMARILLO      MOSUNNY   66  51  58 W17       30.00S
OXNARD AIRPORT MOSUNNY   65  52  62 W14       30.01R
*POINT MUGU    MOSUNNY   68  54  60 W12       30.02S
SBA APT/GOLETA MOSUNNY   65  54  67 W21G30    29.96S
*SANTA BARBARA   N/A     69  53  57 N2        30.05S
*VENTURA         N/A     69  50  52 SW10      29.62R

$$

CAZ044-045-230100-
VENTURA COUNTY VALLEYS


CITY           SKY/WX    TMP DP  RH WIND       PRES   REMARKS
*SIMI VALLEY     N/A     63  52  67 SW3       29.97R
*OJAI            N/A     65  50  56 SW3       29.94S
*FILLMORE        N/A     67  52  59 CALM      29.89S

$$

CAZ053-230100-
VENTURA COUNTY MOUNTAINS


CITY           SKY/WX    TMP DP  RH WIND       PRES   REMARKS

$$

CAZ034-035-036-230100-
CENTRAL COAST AND SANTA YNEZ VALLEY


CITY           SKY/WX    TMP DP  RH WIND       PRES   REMARKS
SAN LUIS OBISP SUNNY     65  49  56 NW21      30.02S
SANTA MARIA    MOSUNNY   66  53  63 NW20      30.02S

CITY           SKY/WX    TMP DP  RH WIND       PRES   REMARKS
*PISMO BEACH     N/A     60  55  85 W18       30.03R
*SANTA YNEZ    FAIR      68  46  45 W17G26    29.99R

$$

CAZ037-038-051-230100-
SAN LUIS OBISPO COUNTY INTERIOR AND CUYAMA VALLEY


CITY           SKY/WX    TMP DP  RH WIND       PRES   REMARKS
*CUYAMA          N/A     66  46  47 N6        29.93S
PASO ROBLES    SUNNY     70  46  42 SW18      29.96F

$$

CAZ032-033-061-230100-
SOUTHERN DESERTS


CITY           SKY/WX    TMP DP  RH WIND       PRES   REMARKS
BLYTHE         MOSUNNY   80  40  23 SW21      29.83R
IMPERIAL       SUNNY     76  43  30 W23G33    29.88S
PALM SPRINGS   MOSUNNY   76  42  29 NW15G26   29.88R
THERMAL        SUNNY     78  41  26 W15G23    29.84R

$$

ELSEWHERE ACROSS THE WESTERN UNITED STATES AND MEXICO


CITY           SKY/WX    TMP DP  RH WIND       PRES   REMARKS
DENVER, CO     PTSUNNY   56  45  66 NE14      29.99R
GRAND CANYON,  NOT AVBL
HONOLULU, HI   PTSUNNY   81  70  69 SW13      29.95S
KAHULUI, MAUI  MOSUNNY   81  68  65 N10       29.97S
LAKE TAHOE, CA CLOUDY    50  41  71 S8        30.01S
LAS VEGAS, NV  PTSUNNY   71  39  31 S21G35    29.80R
MAMMOTH LAKES, PTSUNNY   52  36  54 W13       30.00S
MEXICO CITY, M TSTM      57  52  82 E15G35    30.35
PHOENIX, AZ    MOSUNNY   78  36  21 W14G28    29.84S
PORTLAND, OR   CLOUDY    59  54  83 S6        30.05S
RENO, NV       CLOUDY    66  40  38 W14       29.91F
SALT LAKE CITY CLOUDY    62  39  42 SE3       29.86F
SAN DIEGO, CA  PTSUNNY   66  51  58 W10       30.06R
SAN FRANCISCO, CLOUDY    61  51  70 W10G21    30.04R
SAN JOSE, CA   PTSUNNY   65  52  62 NW17      30.01R
SEATTLE, WA    CLOUDY    60  50  69 SW9       30.02S
TIJUANA, MEX   PTSUNNY   64  46  52 W13       30.06S

$$

STATION/POSITION TIME  TEMP    WIND        PRES    VSBY  WAVE
                       AIR SEA DIR/SP/G                  HT/PER
                 (UTC) (F)     (DEG/KT/KT) (MB)    (MI)  (FT/S)
POINT ARGUELLO B NOT AVBL
WEST SANTA BARBA 2350   59 58  300/ 14/ 17 1016.3R         4/11
POINT CONCEPTION NOT AVBL
EAST SANTA BARBA 2300   59 58  260/ 21/ 25 1015.6F
SANTA MONICA BAY 2350   61 63  270/ 14/ 17 1016.6R         3/ 5



USA.gov is the U.S. government's official web portal to all federal, state and local government web resources and services.